Raton, NM

7:47 PM MDT on May 29, 2017 (GMT -0600)
Raton Municipal-Crews

Weather History for KRTN - November, 2012

Change the Weather History Date:

Wednesday, November 21, 2012

  Actual Average (KTAD) Record (KTAD)
Temperature  
Mean Temperature 42 °F -  
Max Temperature 61 °F 54 °F 75 °F (1989)
Min Temperature 23 °F 23 °F -3 °F (1957)
Degree Days  
Heating Degree Days 23    
Moisture  
Dew Point 8 °F    
Average Humidity 30    
Maximum Humidity 55    
Minimum Humidity 12    
Precipitation  
Precipitation 0.00 in - - ()
Sea Level Pressure  
Sea Level Pressure 30.07 in    
Wind  
Wind Speed 5 mph (NE)    
Max Wind Speed 9 mph    
Max Gust Speed -    
Visibility 10 miles    
Events      
Averages and records for this station are not official NWS values.
T = Trace of Precipitation, MM = Missing Value Source: NWS Daily Summary

Daily Weather History Graph

Daily Weather History Graph

Search for Another Location

Airport or City:

Trip Planner

Search our weather history database for the weather conditions in past years. The results will help you decide how hot, cold, wet, or windy it might be!

Date:

Astronomy

Nov. 21, 2012 Rise Set
Actual Time 6:42 AM MST 4:45 PM MST
Civil Twilight 6:14 AM MST 5:13 PM MST
Nautical Twilight 5:43 AM MST 5:44 PM MST
Astronomical Twilight 5:12 AM MST 6:15 PM MST
Moon 12:54 PM MST (11/21) 12:13 AM MST (11/21)
Length of Visible Light 10h 58m
Length of Day
10h 02m
Waxing Gibbous, 62% of the Moon is Illuminated
Nov 21
Waxing Gibbous
Nov 28
Full
Dec 6
Last Quarter
Dec 13
New
Dec 19
First Quarter

Hourly Weather History & Observations

Time (MST) Temp. Windchill Dew Point Humidity Pressure Visibility Wind Dir Wind Speed Gust Speed Precip Events Conditions
12:53 AM 34.0 °F 28.8 °F 12.0 °F 40% 30.12 in 10.0 mi North 5.8 mph - N/A   Clear
1:53 AM 28.0 °F 24.2 °F 8.1 °F 43% 30.13 in 10.0 mi NE 3.5 mph - N/A   Clear
2:53 AM 28.0 °F - 10.0 °F 47% 30.12 in 10.0 mi Calm Calm - N/A   Clear
3:53 AM 26.1 °F 18.4 °F 9.0 °F 49% 30.12 in 10.0 mi ENE 6.9 mph - N/A   Clear
4:53 AM 24.1 °F 15.2 °F 9.0 °F 53% 30.16 in 10.0 mi NE 8.1 mph - N/A   Clear
5:53 AM 26.1 °F 19.4 °F 10.0 °F 51% 30.16 in 10.0 mi ENE 5.8 mph - N/A   Clear
6:53 AM 23.0 °F 14.7 °F 9.0 °F 55% 30.21 in 10.0 mi North 6.9 mph - N/A   Clear
7:53 AM 25.0 °F 17.1 °F 9.0 °F 51% 30.21 in 10.0 mi NE 6.9 mph - N/A   Clear
8:53 AM 39.0 °F 36.8 °F 12.9 °F 34% 30.16 in 10.0 mi ENE 3.5 mph - N/A   Clear
9:53 AM 48.0 °F - 12.0 °F 24% 30.13 in 10.0 mi Calm Calm - N/A   Clear
10:53 AM 53.1 °F - 12.0 °F 20% 30.08 in 10.0 mi SSW 5.8 mph - N/A   Clear
11:53 AM 55.0 °F - 8.1 °F 15% 30.05 in 10.0 mi SSW 6.9 mph - N/A   Clear
12:53 PM 57.9 °F - 8.1 °F 14% 29.99 in 10.0 mi SSW 5.8 mph - N/A   Clear
1:53 PM 60.1 °F - 7.0 °F 12% 29.98 in 10.0 mi SSW 8.1 mph - N/A   Clear
2:53 PM 61.0 °F - 7.0 °F 12% 29.95 in 10.0 mi SW 9.2 mph - N/A   Clear
3:53 PM 55.9 °F - 8.1 °F 15% 29.97 in 10.0 mi West 6.9 mph - N/A   Clear
4:53 PM 51.1 °F - 8.1 °F 18% 30.00 in 10.0 mi NE 5.8 mph - N/A   Clear
5:53 PM 46.9 °F - 7.0 °F 20% 30.01 in 10.0 mi Calm Calm - N/A   Clear
6:53 PM 44.1 °F - 7.0 °F 22% 30.05 in 10.0 mi Calm Calm - N/A   Clear
7:53 PM 39.9 °F - 5.0 °F 23% 30.06 in 10.0 mi Calm Calm - N/A   Clear
8:53 PM 39.9 °F 35.1 °F 3.9 °F 22% 30.01 in 10.0 mi NNE 6.9 mph - N/A   Clear
9:53 PM 34.0 °F 28.8 °F 3.0 °F 27% 29.99 in 10.0 mi NE 5.8 mph - N/A   Clear
10:53 PM 34.0 °F 28.0 °F 7.0 °F 32% 29.95 in 10.0 mi North 6.9 mph - N/A   Clear
11:53 PM 28.9 °F 22.8 °F 3.0 °F 33% 29.96 in 10.0 mi ENE 5.8 mph - N/A   Clear